Location: Goettingen
(51.5300°N, 9.9433°E)
Time: 19:58:05
(UTC+01:00)

ISS - Pass Details

Date: 14 December 2017
Orbit: 402 x 407 km, 51.6° (Epoch: 11 December)

Event Time Altitude Azimuth Distance (km) Brightness Sun altitude
Rises 18:45:48 0° 278° (W) 2,330 1.3 -22.7°
Reaches altitude 10° 18:48:48 10° 248° (WSW) 1,464 0.0 -23.1°
Maximum altitude 18:50:17 13° 221° (SW) 1,316 -0.6 -23.4°
Drops below altitude 10° 18:51:46 10° 194° (SSW) 1,459 -0.8 -23.6°
Enters shadow 18:52:20 - 186° (S) 1,579 -0.7 -23.7°
